Date,TemperatureHighF,TemperatureAvgF,TemperatureLowF,DewpointHighF,DewpointAvgF,DewpointLowF,HumidityHigh,HumidityAvg,HumidityLow,PressureMaxIn,PressureMinIn,WindSpeedMaxMPH,WindSpeedAvgMPH,GustSpeedMaxMPH,PrecipitationSumIn
2014-1-1,24,21,17,-100,-100,-100,0,0,100,0.00,40.00,0,-999,0,0.01
2014-1-3,27,23,19,-100,-100,-100,0,0,100,0.00,40.00,0,-999,0,0.00
2014-1-4,22,19,7,-100,-100,-100,0,0,100,0.00,40.00,0,-999,0,0.00
2014-1-5,11,3,-5,-100,-100,-100,0,0,100,0.00,40.00,0,-999,0,0.00
2014-1-6,24,18,14,-100,-100,-100,0,0,100,0.00,40.00,0,-999,0,0.00
2014-1-7,32,23,15,-100,-100,-100,0,0,100,0.00,40.00,0,-999,0,0.00
2014-1-8,32,21,15,-100,-100,-100,0,0,100,0.00,40.00,0,-999,0,0.00
2014-1-10,19,12,9,-100,-100,-100,0,0,100,0.00,40.00,0,-999,0,0.02
2014-1-11,38,26,15,-100,-100,-100,0,0,100,0.00,40.00,0,-999,0,0.01
2014-1-12,24,18,7,-100,-100,-100,0,0,100,0.00,40.00,0,-999,0,0.01
2014-1-13,24,14,2,-100,-100,-100,0,0,100,0.00,40.00,0,-999,0,0.01
2014-1-14,21,18,16,-100,-100,-100,0,0,100,0.00,40.00,0,-999,0,0.00
2014-1-15,37,28,21,-100,-100,-100,0,0,100,0.00,40.00,0,-999,0,0.00
2014-1-16,32,23,14,-100,-100,-100,0,0,100,0.00,40.00,0,-999,0,0.00
2014-1-17,34,25,13,-100,-100,-100,0,0,100,0.00,40.00,0,-999,0,0.00
2014-1-18,38,25,16,-100,-100,-100,0,0,100,0.00,40.00,0,-999,0,0.00
2014-1-19,38,28,19,-100,-100,-100,0,0,100,0.00,40.00,0,-999,0,0.00
2014-1-20,35,25,14,-100,-100,-100,0,0,100,0.00,40.00,0,-999,0,0.00
2014-1-21,35,23,16,-100,-100,-100,0,0,100,0.00,40.00,0,-999,0,0.00
2014-1-22,31,25,14,-100,-100,-100,0,0,100,0.00,40.00,0,-999,0,0.00
2014-1-23,24,14,8,-100,-100,-100,0,0,100,0.00,40.00,0,-999,0,0.00
2014-1-24,35,21,8,-100,-100,-100,0,0,100,0.00,40.00,0,-999,0,0.00
2014-1-25,39,30,24,-100,-100,-100,0,0,100,0.00,40.00,0,-999,0,0.00
2014-1-26,38,25,16,-100,-100,-100,0,0,100,0.00,40.00,0,-999,0,0.00
2014-1-27,24,20,18,-100,-100,-100,0,0,100,0.00,40.00,0,-999,0,0.00
2014-1-28,20,20,20,-100,-100,-100,0,0,100,0.00,40.00,0,-999,0,0.00
2014-1-29,31,30,28,-100,-100,-100,0,0,100,0.00,40.00,0,-999,0,0.00
2014-1-30,27,26,25,-100,-100,-100,0,0,100,0.00,40.00,0,-999,0,0.02
2014-1-31,23,19,15,-100,-100,-100,0,0,100,0.00,40.00,0,-999,0,0.06
2014-2-1,20,16,13,-100,-100,-100,0,0,100,0.00,40.00,0,-999,0,0.03
2014-2-2,27,10,-4,-100,-100,-100,0,0,100,0.00,40.00,0,-999,0,0.00
2014-2-3,19,14,9,-100,-100,-100,0,0,100,0.00,40.00,0,-999,0,0.01
2014-2-4,16,8,2,-100,-100,-100,0,0,100,0.00,40.00,0,-999,0,0.01
2014-2-5,18,6,-2,-100,-100,-100,0,0,100,0.00,40.00,0,-999,0,0.01
2014-2-6,19,14,7,-100,-100,-100,0,0,100,0.00,40.00,0,-999,0,0.00
2014-2-12,28,22,11,-100,-100,-100,0,0,100,0.00,40.00,0,-999,0,0.00
2014-2-13,34,30,25,-100,-100,-100,0,0,100,0.00,40.00,0,-999,0,0.00
2014-2-14,36,34,33,-100,-100,-100,0,0,100,0.00,40.00,0,-999,0,0.00
2014-2-15,44,35,27,-100,-100,-100,0,0,100,0.00,40.00,0,-999,0,0.00
2014-2-16,32,30,27,-100,-100,-100,0,0,100,0.00,40.00,0,-999,0,0.00
2014-2-17,39,29,16,-100,-100,-100,0,0,100,0.00,40.00,0,-999,0,0.00
2014-2-18,42,33,23,-100,-100,-100,0,0,100,0.00,40.00,0,-999,0,0.00
2014-2-19,30,27,24,-100,-100,-100,0,0,100,0.00,40.00,0,-999,0,0.00
2014-2-20,18,9,1,-100,-100,-100,0,0,100,0.00,40.00,0,-999,0,0.01
2014-2-21,29,18,7,-100,-100,-100,0,0,100,0.00,40.00,0,-999,0,0.02
2014-2-22,29,24,17,-100,-100,-100,0,0,100,0.00,40.00,0,-999,0,0.00
2014-2-23,38,22,15,-100,-100,-100,0,0,100,0.00,40.00,0,-999,0,0.00
2014-2-24,22,18,15,-100,-100,-100,0,0,100,0.00,40.00,0,-999,0,0.00
2014-2-25,41,29,15,-100,-100,-100,0,0,100,0.00,40.00,0,-999,0,0.00
2014-2-26,40,29,17,-100,-100,-100,0,0,100,0.00,40.00,0,-999,0,0.00
2014-2-27,32,27,23,-100,-100,-100,0,0,100,0.00,40.00,0,-999,0,0.01
2014-2-28,28,23,17,-100,-100,-100,0,0,100,0.00,40.00,0,-999,0,0.02
2014-3-1,28,26,23,-100,-100,-100,0,0,100,0.00,40.00,0,-999,0,0.05
2014-3-2,30,21,13,-100,-100,-100,0,0,100,0.00,40.00,0,-999,0,0.01
2014-3-3,36,25,14,-100,-100,-100,0,0,100,0.00,40.00,0,-999,0,0.00
2014-3-4,37,25,16,-100,-100,-100,0,0,100,0.00,40.00,0,-999,0,0.00
2014-3-5,35,21,12,-100,-100,-100,0,0,100,0.00,40.00,0,-999,0,0.01
2014-3-6,40,27,17,-100,-100,-100,0,0,100,0.00,40.00,0,-999,0,0.00
2014-3-7,32,24,15,-100,-100,-100,0,0,100,0.00,40.00,0,-999,0,0.01
2014-3-8,33,20,9,-100,-100,-100,0,0,100,0.00,40.00,0,-999,0,0.00
2014-3-9,45,33,16,-100,-100,-100,0,0,100,0.00,40.00,0,-999,0,0.00
2014-3-10,49,35,24,-100,-100,-100,0,0,100,0.00,40.00,0,-999,0,0.00
2014-3-11,25,21,9,-100,-100,-100,0,0,100,0.00,40.00,0,-999,0,0.00
2014-3-12,33,22,4,-100,-100,-100,0,0,100,0.00,40.00,0,-999,0,0.00
2014-3-13,36,24,13,-100,-100,-100,0,0,100,0.00,40.00,0,-999,0,0.01
2014-3-14,39,25,14,-100,-100,-100,0,0,100,0.00,40.00,0,-999,0,0.00
2014-3-15,23,18,13,-100,-100,-100,0,0,100,0.00,40.00,0,-999,0,0.00
2014-3-16,39,34,18,-100,-100,-100,0,0,100,0.00,40.00,0,-999,0,0.00
2014-3-17,36,29,23,-100,-100,-100,0,0,100,0.00,40.00,0,-999,0,0.00
2014-3-18,27,16,3,-100,-100,-100,0,0,100,0.00,40.00,0,-999,0,0.00
2014-3-19,34,20,-1,-100,-100,-100,0,0,100,0.00,40.00,0,-999,0,0.00
2014-3-20,40,30,20,-100,-100,-100,0,0,100,0.00,40.00,0,-999,0,0.00
2014-3-21,40,25,18,-100,-100,-100,0,0,100,0.00,40.00,0,-999,0,0.00
2014-3-22,31,26,16,-100,-100,-100,0,0,100,0.00,40.00,0,-999,0,0.00
2014-3-23,38,22,9,-100,-100,-100,0,0,100,0.00,40.00,0,-999,0,0.00
2014-3-24,38,26,16,-100,-100,-100,0,0,100,0.00,40.00,0,-999,0,0.00
2014-3-25,28,21,18,-100,-100,-100,0,0,100,0.00,40.00,0,-999,0,0.00
2014-3-26,26,26,25,-100,-100,-100,0,0,100,0.00,40.00,0,-999,0,0.00
2014-3-27,25,23,20,-100,-100,-100,0,0,100,0.00,40.00,0,-999,0,0.03
2014-3-28,32,24,19,-100,-100,-100,0,0,100,0.00,40.00,0,-999,0,0.01
2014-3-29,38,27,16,-100,-100,-100,0,0,100,0.00,40.00,0,-999,0,0.00
2014-3-30,34,30,21,-100,-100,-100,0,0,100,0.00,40.00,0,-999,0,0.00
2014-3-31,33,30,26,-100,-100,-100,0,0,100,0.00,40.00,0,-999,0,0.00
2014-4-1,34,30,26,-100,-100,-100,0,0,100,0.00,40.00,0,-999,0,0.01
2014-4-2,23,22,19,-100,-100,-100,0,0,100,0.00,40.00,0,-999,0,0.02
2014-4-3,30,22,10,-100,-100,-100,0,0,100,0.00,40.00,0,-999,0,0.02
2014-4-4,33,22,7,-100,-100,-100,0,0,100,0.00,40.00,0,-999,0,0.00
2014-4-5,33,26,19,-100,-100,-100,0,0,100,0.00,40.00,0,-999,0,0.01
2014-4-6,35,27,18,-100,-100,-100,0,0,100,0.00,40.00,0,-999,0,0.00
2014-4-7,32,25,17,-100,-100,-100,0,0,100,0.00,40.00,0,-999,0,0.01
2014-4-8,45,36,18,-100,-100,-100,0,0,100,0.00,40.00,0,-999,0,0.00
2014-4-9,48,36,25,-100,-100,-100,0,0,100,0.00,40.00,0,-999,0,0.00
2014-4-11,48,43,34,-100,-100,-100,0,0,100,0.00,40.00,0,-999,0,0.00
2014-4-12,44,36,30,-100,-100,-100,0,0,100,0.00,40.00,0,-999,0,0.00
2014-4-17,45,41,32,-100,-100,-100,0,0,100,0.00,40.00,0,-999,0,0.00
2014-4-18,45,35,29,-100,-100,-100,0,0,100,0.00,40.00,0,-999,0,0.00
2014-4-19,43,36,30,-100,-100,-100,0,0,100,0.00,40.00,0,-999,0,0.01
2014-4-20,44,37,28,-100,-100,-100,0,0,100,0.00,40.00,0,-999,0,0.00
2014-4-21,49,39,27,-100,-100,-100,0,0,100,0.00,40.00,0,-999,0,0.00
2014-4-22,44,39,33,-100,-100,-100,0,0,100,0.00,40.00,0,-999,0,0.00
2014-4-23,38,33,22,-100,-100,-100,0,0,100,0.00,40.00,0,-999,0,0.00
2014-4-24,43,36,19,-100,-100,-100,0,0,100,0.00,40.00,0,-999,0,0.00
2014-4-25,43,40,33,-100,-100,-100,0,0,100,0.00,40.00,0,-999,0,0.00
2014-4-26,35,29,18,-100,-100,-100,0,0,100,0.00,40.00,0,-999,0,0.03
2014-4-27,29,22,17,-100,-100,-100,0,0,100,0.00,40.00,0,-999,0,0.02
2014-4-28,28,20,13,-100,-100,-100,0,0,100,0.00,40.00,0,-999,0,0.03
2014-4-29,33,22,10,-100,-100,-100,0,0,100,0.00,40.00,0,-999,0,0.01
2014-4-30,35,26,10,-100,-100,-100,0,0,100,0.00,40.00,0,-999,0,0.00
2014-5-1,35,27,14,-100,-100,-100,0,0,100,0.00,40.00,0,-999,0,0.00
2014-5-2,47,37,24,-100,-100,-100,0,0,100,0.00,40.00,0,-999,0,0.00
2014-5-3,53,41,30,-100,-100,-100,0,0,100,0.00,40.00,0,-999,0,0.00
2014-5-4,51,46,37,-100,-100,-100,0,0,100,0.00,40.00,0,-999,0,0.00
2014-5-5,49,44,37,-100,-100,-100,0,0,100,0.00,40.00,0,-999,0,0.00
2014-5-6,42,38,31,-100,-100,-100,0,0,100,0.00,40.00,0,-999,0,0.00
2014-5-13,30,24,20,-100,-100,-100,0,0,100,0.00,40.00,0,-999,0,0.01
2014-5-14,36,30,11,-100,-100,-100,0,0,100,0.00,40.00,0,-999,0,0.00
2014-5-15,43,33,22,-100,-100,-100,0,0,100,0.00,40.00,0,-999,0,0.00
2014-5-16,50,43,30,-100,-100,-100,0,0,100,0.00,40.00,0,-999,0,0.00
2014-5-17,52,43,33,-100,-100,-100,0,0,100,0.00,40.00,0,-999,0,0.00
2014-5-18,51,47,40,-100,-100,-100,0,0,100,0.00,40.00,0,-999,0,0.00
2014-5-19,49,46,37,-100,-100,-100,0,0,100,0.00,40.00,0,-999,0,0.01
2014-5-20,48,45,33,-100,-100,-100,0,0,100,0.00,40.00,0,-999,0,0.00
2014-5-21,44,42,39,-100,-100,-100,0,0,100,0.00,40.00,0,-999,0,0.01
2014-5-22,47,39,31,-100,-100,-100,0,0,100,0.00,40.00,0,-999,0,0.00
2014-5-23,36,34,28,-100,-100,-100,0,0,100,0.00,40.00,0,-999,0,0.02
2014-5-24,44,35,25,-100,-100,-100,0,0,100,0.00,40.00,0,-999,0,0.01
2014-5-25,38,32,26,-100,-100,-100,0,0,100,0.00,40.00,0,-999,0,0.01
2014-5-26,49,40,26,-100,-100,-100,0,0,100,0.00,40.00,0,-999,0,0.01
2014-5-27,54,46,35,-100,-100,-100,0,0,100,0.00,40.00,0,-999,0,0.00
2014-5-28,59,50,37,-100,-100,-100,0,0,100,0.00,40.00,0,-999,0,0.00
2014-5-29,53,46,40,-100,-100,-100,0,0,100,0.00,40.00,0,-999,0,0.01
2014-5-30,53,43,38,-100,-100,-100,0,0,100,0.00,40.00,0,-999,0,0.01
2014-5-31,56,48,36,-100,-100,-100,0,0,100,0.00,40.00,0,-999,0,0.00
2014-6-1,55,48,38,-100,-100,-100,0,0,100,0.00,40.00,0,-999,0,0.00
2014-6-2,58,49,36,-100,-100,-100,0,0,100,0.00,40.00,0,-999,0,0.00
2014-6-3,56,51,46,-100,-100,-100,0,0,100,0.00,40.00,0,-999,0,0.00
2014-6-4,58,52,39,-100,-100,-100,0,0,100,0.00,40.00,0,-999,0,0.00
2014-6-5,60,57,53,-100,-100,-100,0,0,100,0.00,40.00,0,-999,0,0.00
2014-6-6,61,50,39,-100,-100,-100,0,0,100,0.00,40.00,0,-999,0,0.00
2014-6-7,54,45,36,-100,-100,-100,0,0,100,0.00,40.00,0,-999,0,0.01
2014-6-8,50,41,32,-100,-100,-100,0,0,100,0.00,40.00,0,-999,0,0.02
2014-6-9,54,42,26,-100,-100,-100,0,0,100,0.00,40.00,0,-999,0,0.01
2014-6-10,59,49,36,-100,-100,-100,0,0,100,0.00,40.00,0,-999,0,0.00
2014-6-11,59,49,43,-100,-100,-100,0,0,100,0.00,40.00,0,-999,0,0.00
2014-6-12,58,47,37,-100,-100,-100,0,0,100,0.00,40.00,0,-999,0,0.00
2014-6-13,58,51,44,-100,-100,-100,0,0,100,0.00,40.00,0,-999,0,0.00
2014-6-14,49,44,34,-100,-100,-100,0,0,100,0.00,40.00,0,-999,0,0.01
2014-6-15,53,46,34,-100,-100,-100,0,0,100,0.00,40.00,0,-999,0,0.00
2014-6-16,52,46,36,-100,-100,-100,0,0,100,0.00,40.00,0,-999,0,0.00
2014-6-17,54,47,40,-100,-100,-100,0,0,100,0.00,40.00,0,-999,0,0.00
2014-6-18,49,44,39,-100,-100,-100,0,0,100,0.00,40.00,0,-999,0,0.01
2014-6-19,58,46,33,-100,-100,-100,0,0,100,0.00,40.00,0,-999,0,0.01
2014-6-20,61,49,34,-100,-100,-100,0,0,100,0.00,40.00,0,-999,0,0.00
2014-6-21,58,50,41,-100,-100,-100,0,0,100,0.00,40.00,0,-999,0,0.01
2014-6-22,59,50,41,-100,-100,-100,0,0,100,0.00,40.00,0,-999,0,0.00
2014-6-23,58,46,40,-100,-100,-100,0,0,100,0.00,40.00,0,-999,0,0.00
2014-6-24,60,50,39,-100,-100,-100,0,0,100,0.00,40.00,0,-999,0,0.00
2014-6-25,62,53,41,-100,-100,-100,0,0,100,0.00,40.00,0,-999,0,0.00
2014-6-26,60,53,44,-100,-100,-100,0,0,100,0.00,40.00,0,-999,0,0.00
2014-6-27,54,47,41,-100,-100,-100,0,0,100,0.00,40.00,0,-999,0,0.01
2014-6-28,60,47,37,-100,-100,-100,0,0,100,0.00,40.00,0,-999,0,0.00
2014-6-29,66,57,44,-100,-100,-100,0,0,100,0.00,40.00,0,-999,0,0.00
2014-6-30,66,54,45,-100,-100,-100,0,0,100,0.00,40.00,0,-999,0,0.00
2014-7-1,69,54,38,-100,-100,-100,0,0,100,0.00,40.00,0,-999,0,0.00
2014-7-2,65,55,42,-100,-100,-100,0,0,100,0.00,40.00,0,-999,0,0.00
2014-7-3,63,52,45,-100,-100,-100,0,0,100,0.00,40.00,0,-999,0,0.01
2014-7-4,63,51,41,-100,-100,-100,0,0,100,0.00,40.00,0,-999,0,0.01
2014-7-5,55,46,40,-100,-100,-100,0,0,100,0.00,40.00,0,-999,0,0.01
2014-7-6,64,53,42,-100,-100,-100,0,0,100,0.00,40.00,0,-999,0,0.01
2014-7-7,62,49,43,-100,-100,-100,0,0,100,0.00,40.00,0,-999,0,0.02
2014-7-8,60,49,42,-100,-100,-100,0,0,100,0.00,40.00,0,-999,0,0.01
2014-7-9,58,46,41,-100,-100,-100,0,0,100,0.00,40.00,0,-999,0,0.00
2014-7-10,60,52,43,-100,0,200,0,0,100,0.00,40.00,0,0,0,0.00
2014-7-11,59,53,47,-100,0,200,0,0,100,0.00,40.00,0,0,0,0.01
2014-7-12,57,50,43,-100,0,200,0,0,100,0.00,40.00,0,0,0,0.03
2014-7-13,62,56,45,-100,0,200,0,0,100,0.00,40.00,0,0,0,0.01
2014-7-14,65,55,47,-100,0,200,0,0,100,0.00,40.00,0,0,0,0.00
2014-7-15,62,52,44,-100,0,200,0,0,100,0.00,40.00,0,0,0,0.01
2014-12-20,22,19,16,-100,0,200,0,0,100,0.00,40.00,0,0,0,0.00